Content
SEND FEEDBACK

Daily
Averages
Monthly
Summary
Turkmenistan

ASHGABAT, TURKMENISTAN


Home > Asia > Turkmenistan
Elevation: 775 feet     Latitude: 37 58N     Longitude: 058 20E

WEATHER
 
SELECT A DAY
Number of Records: 183,661;   Date Range: 3/15/97 - 12/24/14
 
SHARE

PRINT THIS DATA

[ ← Previous Day ]
WEATHER ALMANAC - APRIL 10, 2013
[ Next Day → ]
[ °C ]   °F
Weather ElementAverageHighLow
Temperature72.9 °F91.4 °F (1:00 pm)53.6 °F (4:00 am)
Dewpoint38.5 °F47 °F (11:00 pm)30.2 °F (12:00 pm)
Humidity31.3 %62 % (4:00 am)7 % (2:00 pm)
Barometer29.69 in29.80 in (9:00 pm)29.62 in (4:00 am)
Wind Speed6.9 mph15.7 mph (2:00 pm)
Weather ElementAverage
Visibility6.2 mi
Wind DirectionSSW (200.6 °)

Weather ElementTotal
Precipitation---
Cooling Degree Days7.5 (Base 65)
Growing Degree Days22.5 (Base 50)
Averaged from 34 records on April 10, 2013
WEATHER CONDITIONS BREAKOUT
WIND DIRECTION BREAKOUT
WEATHER BY HOUR - APRIL 10, 2013
[ °C ]   °F
Local TimeTemperatureDewpointHumidityBarometerVisibilityWind DirectionWind SpeedGust SpeedPrecipitationEventsConditions
1:00 AM60.8 °F35.6 °F39 %29.68 in6.2 miSouth (170°)4.5 mphClear
2:00 AM60.0 °F43.0 °F42 %29.67 in6.0 miSW (230°)2.2 mph
2:00 AM60.8 °F37.4 °F42 %29.65 in6.2 miSW (220°)4.5 mphClear
3:00 AM57.2 °F39.2 °F51 %29.65 in6.2 miCalmClear
4:00 AM53.6 °F41.0 °F62 %29.62 in6.2 miSouth (180°)4.5 mphClear
4:30 AM57.2 °F41.0 °F55 %29.62 in6.2 miSSE (160°)6.7 mphClear
5:00 AM55.0 °F40.0 °F45 %29.65 in6.0 miSE (140°)2.2 mph
5:00 AM57.2 °F39.2 °F51 %29.62 in6.2 miSSE (160°)6.7 mphClear
5:30 AM57.2 °F37.4 °F48 %29.62 in6.2 miSouth (180°)4.5 mphClear
6:00 AM57.2 °F39.2 °F51 %29.62 in6.2 miSW (220°)4.5 mphClear
6:30 AM55.4 °F39.2 °F54 %29.65 in6.2 miVariable2.2 mphClear
7:00 AM53.6 °F41.0 °F62 %29.65 in6.2 miCalmPartly Cloudy
8:00 AM58.0 °F43.0 °F47 %29.68 in6.0 miSouth (170°)2.2 mphClear
8:00 AM62.6 °F41.0 °F45 %29.68 in6.2 miSSE (160°)4.5 mphPartly Cloudy
9:00 AM69.8 °F39.2 °F33 %29.68 in6.2 miVariable2.2 mphPartly Cloudy
10:00 AM78.8 °F37.4 °F23 %29.71 in6.2 miVariable2.2 mphScattered Clouds
11:00 AM86.0 °F32.0 °F14 %29.71 in6.2 miEast (80°)4.5 mphMostly Cloudy
11:00 AM83.0 °F37.0 °F11 %29.68 in6.0 miCalmClear
12:00 PM89.6 °F30.2 °F12 %29.71 in6.2 miNorth (350°)4.5 mphMostly Cloudy
1:00 PM91.4 °F32.0 °F12 %29.71 in6.2 miNNW (330°)11.2 mphOvercast
2:00 PM90.0 °F35.0 °F7 %29.67 in6.0 miWest (280°)13.4 mphOvercast
2:00 PM89.6 °F33.8 °F14 %29.71 in6.2 miWNW (290°)15.7 mphOvercast
3:00 PM91.4 °F33.8 °F13 %29.71 in6.2 miWNW (300°)15.7 mphOvercast
4:00 PM91.4 °F33.8 °F13 %29.71 in6.2 miWNW (290°)15.7 mphOvercast
5:00 PM89.6 °F35.6 °F15 %29.71 in6.2 miWest (270°)13.4 mphOvercast
5:00 PM90.0 °F37.0 °F8 %29.67 in6.0 miWest (270°)13.4 mphOvercast
6:00 PM89.6 °F35.6 °F15 %29.71 in6.2 miWest (270°)11.2 mphOvercast
7:00 PM84.2 °F39.2 °F20 %29.74 in6.2 miWest (280°)8.9 mphMostly Cloudy
8:00 PM80.0 °F44.0 °F18 %29.73 in6.0 miWNW (290°)11.2 mphClear
8:00 PM78.8 °F41.0 °F26 %29.77 in6.2 miWNW (300°)11.2 mphMostly Cloudy
9:00 PM77.0 °F42.8 °F29 %29.80 in6.2 miWest (260°)8.9 mphMostly Cloudy
10:00 PM77.0 °F41.0 °F28 %29.80 in6.2 miWest (260°)8.9 mphScattered Clouds
11:00 PM72.0 °F47.0 °F29 %29.80 in6.0 miWSW (250°)4.5 mphScattered Clouds
11:00 PM75.2 °F42.8 °F31 %29.80 in6.2 miWest (260°)8.9 mphMostly Cloudy
Hourly data recorded from UTAA, located miles away from Ashgabat, Turkmenistan







STORIES FROM OUR PARTNERS